This is the latest recevied weather packets stored in our database for station/object KC3ROS. If no packets are shown the sender has not sent any weather packets the latest 10 day(s).
| Time | Temp. | Humidity | Pressure | Rain* | Wind** | Luminosity | Snow |
|---|---|---|---|---|---|---|---|
| 1778031638 | 19.44° C | 59% | 1006.7 hPa | 0 mm | - | 0 W/m² | - |
| 1778031337 | 19.44° C | 59% | 1006.6 hPa | 0 mm | - | 0 W/m² | - |
| 1778031033 | 19.44° C | 58% | 1006.5 hPa | 0 mm | - | 0 W/m² | - |
| 1778030729 | 19.44° C | 59% | 1006.5 hPa | 0 mm | - | 0 W/m² | - |
| 1778030426 | 19.44° C | 58% | 1006.4 hPa | 0 mm | - | 0 W/m² | - |
| 1778030124 | 19.44° C | 58% | 1006.5 hPa | 0 mm | - | 0 W/m² | - |
| 1778029819 | 19.44° C | 58% | 1006.6 hPa | 0 mm | - | 0 W/m² | - |
| 1778029514 | 19.44° C | 58% | 1006.4 hPa | 0 mm | - | 0 W/m² | - |
| 1778029210 | 19.44° C | 58% | 1006.6 hPa | 0 mm | - | 0 W/m² | - |
| 1778028907 | 19.44° C | 57% | 1006.3 hPa | 0 mm | - | 0 W/m² | - |
| 1778028603 | 19.44° C | 59% | 1006.5 hPa | 0 mm | - | 0 W/m² | - |
| 1778028301 | 20° C | 57% | 1006.4 hPa | 0 mm | - | 0 W/m² | - |
| 1778027996 | 20° C | 58% | 1006.4 hPa | 0 mm | - | 0 W/m² | - |
| 1778027693 | 20° C | 57% | 1006.3 hPa | 0 mm | - | 0 W/m² | - |
| 1778027389 | 20° C | 58% | 1006.3 hPa | 0 mm | - | 1 W/m² | - |
| 1778027085 | 20° C | 58% | 1006.5 hPa | 0 mm | - | 1 W/m² | - |
| 1778026781 | 20° C | 57% | 1006.5 hPa | 0 mm | - | 1 W/m² | - |
| 1778026478 | 20° C | 59% | 1006.7 hPa | 0 mm | - | 2 W/m² | - |
| 1778026175 | 20° C | 58% | 1006.7 hPa | 0 mm | - | 4 W/m² | - |
| 1778025873 | 20° C | 58% | 1006.9 hPa | 0 mm | - | 5 W/m² | - |
| 1778025570 | 20.56° C | 58% | 1006.6 hPa | 0 mm | - | 6 W/m² | - |
| 1778025268 | 20° C | 58% | 1006.5 hPa | 0 mm | - | 5 W/m² | - |
| 1778024964 | 20.56° C | 59% | 1006.5 hPa | 0 mm | - | 8 W/m² | - |
| 1778024662 | 20.56° C | 58% | 1006.3 hPa | 0 mm | - | 13 W/m² | - |
| 1778024358 | 20.56° C | 59% | 1006.4 hPa | 0 mm | - | 15 W/m² | - |
* Rain latest hour (hover to see other rain measurements)
** Current wind speed in m/s (hover to see current wind gust speed)